| time (UTC) | temp C | wind direction | speed KPH | gust KPH | rain 1hr cm | rain 24hr cm | rain mn cm | humidity % | barometer mb |
| 20260510150018 | 14 | 252 | 0.0 | 4.8 | 0.00 | 0.66 | 0.00 | 81 | 1011.2 |
| 20260510144523 | 14 | 194 | 0.0 | 6.4 | 0.00 | 0.76 | 0.00 | 79 | 1011.0 |
| 20260510143017 | 14 | 181 | 0.0 | 8.0 | 0.00 | 0.76 | 0.00 | 82 | 1010.8 |
| 20260510141512 | 13 | 210 | 0.0 | 6.4 | 0.00 | 0.76 | 0.00 | 90 | 1010.9 |
| 20260510140012 | 11 | 171 | 0.0 | 3.2 | 0.00 | 0.76 | 0.00 | 93 | 1011.0 |
| 20260510134504 | 10 | 190 | 0.0 | 6.4 | 0.00 | 0.76 | 0.00 | 93 | 1011.1 |
| 20260510133100 | 9 | 190 | 0.0 | 3.2 | 0.00 | 0.76 | 0.00 | 93 | 1011.1 |
| 20260510131557 | 8 | 188 | 0.0 | 8.0 | 0.00 | 0.76 | 0.00 | 94 | 1011.3 |
| 20260510130105 | 8 | 206 | 0.0 | 3.2 | 0.00 | 0.76 | 0.00 | 94 | 1011.4 |
| 20260510124559 | 8 | 204 | 0.0 | 0.0 | 0.00 | 0.76 | 0.00 | 94 | 1011.3 |
| 20260510123055 | 8 | 174 | 0.0 | 4.8 | 0.00 | 0.76 | 0.00 | 94 | 1010.9 |
| 20260510121549 | 7 | 137 | 0.0 | 0.0 | 0.00 | 0.76 | 0.00 | 94 | 1011.2 |
| 20260510120045 | 7 | 133 | 0.0 | 0.0 | 0.00 | 0.76 | 0.00 | 94 | 1011.2 |
| 20260510114545 | 7 | 132 | 0.0 | 0.0 | 0.00 | 0.76 | 0.00 | 94 | 1011.2 |
| 20260510113045 | 7 | 132 | 0.0 | 3.2 | 0.00 | 0.76 | 0.00 | 94 | 1011.2 |
| 20260510111539 | 6 | 107 | 0.0 | 0.0 | 0.00 | 0.76 | 0.00 | 94 | 1010.9 |
| 20260510110037 | 6 | 107 | 0.0 | 0.0 | 0.00 | 0.76 | 0.00 | 94 | 1010.8 |
| 20260510104537 | 6 | 107 | 0.0 | 0.0 | 0.00 | 0.76 | 0.00 | 94 | 1010.7 |
| 20260510103037 | 6 | 105 | 0.0 | 0.0 | 0.00 | 0.76 | 0.00 | 94 | 1010.5 |
| 20260510101532 | 6 | 105 | 0.0 | 0.0 | 0.00 | 0.76 | 0.00 | 94 | 1010.2 |
| 20260510100033 | 6 | 105 | 0.0 | 0.0 | 0.00 | 0.76 | 0.00 | 94 | 1009.9 |
| 20260510094532 | 6 | 105 | 0.0 | 0.0 | 0.00 | 0.76 | 0.00 | 94 | 1009.3 |
| 20260510093030 | 6 | 106 | 0.0 | 0.0 | 0.00 | 0.76 | 0.00 | 94 | 1009.2 |
| 20260510091531 | 6 | 106 | 0.0 | 0.0 | 0.00 | 0.76 | 0.00 | 94 | 1009.3 |
| 20260510090028 | 6 | 106 | 0.0 | 0.0 | 0.00 | 0.76 | 0.00 | 94 | 1009.2 |
| 20260510084525 | 7 | 106 | 0.0 | 0.0 | 0.00 | 0.76 | 0.00 | 94 | 1009.2 |
| 20260510083022 | 7 | 106 | 0.0 | 0.0 | 0.00 | 0.76 | 0.00 | 94 | 1009.6 |
| 20260510081520 | 7 | 106 | 0.0 | 0.0 | 0.00 | 0.76 | 0.00 | 94 | 1010.2 |
| 20260510080122 | 7 | 106 | 0.0 | 3.2 | 0.00 | 0.76 | 0.00 | 94 | 1010.0 |
| 20260510074520 | 7 | 58 | 0.0 | 0.0 | 0.00 | 0.76 | 0.00 | 94 | 1010.4 |
| 20260510073027 | 6 | 54 | 0.0 | 0.0 | 0.00 | 0.76 | 0.00 | 94 | 1010.2 |
| 20260510071518 | 6 | 54 | 0.0 | 0.0 | 0.00 | 0.76 | 0.00 | 94 | 1010.2 |
| 20260510070019 | 6 | 54 | 0.0 | 0.0 | 0.00 | 0.76 | 0.00 | 94 | 1010.2 |
| 20260510064536 | 7 | 54 | 0.0 | 0.0 | 0.00 | 0.76 | 0.00 | 94 | 1009.9 |
| 20260510063020 | 6 | 146 | 0.0 | 0.0 | 0.00 | 0.76 | 0.00 | 94 | 1010.3 |
| 20260510061516 | 6 | 146 | 0.0 | 0.0 | 0.00 | 0.76 | 0.00 | 94 | 1010.1 |
| 20260510060015 | 7 | 142 | 0.0 | 0.0 | 0.00 | 0.76 | 0.00 | 94 | 1010.0 |
| 20260510054515 | 7 | 142 | 0.0 | 0.0 | 0.00 | 0.76 | 0.00 | 94 | 1010.3 |
| 20260510053034 | 7 | 142 | 0.0 | 0.0 | 0.00 | 0.76 | 0.00 | 94 | 1010.1 |
| 20260510051513 | 7 | 142 | 0.0 | 0.0 | 0.00 | 0.76 | 0.00 | 94 | 1010.2 |
| 20260510050015 | 7 | 142 | 0.0 | 0.0 | 0.00 | 0.76 | 0.00 | 93 | 1010.2 |
| 20260510044511 | 7 | 142 | 0.0 | 0.0 | 0.00 | 0.76 | 0.00 | 93 | 1010.4 |
| 20260510043010 | 7 | 142 | 0.0 | 0.0 | 0.00 | 0.76 | 0.00 | 93 | 1010.6 |
| 20260510041509 | 7 | 142 | 0.0 | 6.4 | 0.00 | 0.76 | 0.00 | 93 | 1010.5 |
| 20260510040007 | 7 | 163 | 0.0 | 1.6 | 0.00 | 0.76 | 0.00 | 93 | 1010.5 |
| 20260510034507 | 7 | 157 | 0.0 | 6.4 | 0.00 | 0.76 | 0.76 | 93 | 1010.7 |
| 20260510033005 | 7 | 132 | 0.0 | 0.0 | 0.00 | 0.76 | 0.76 | 93 | 1010.6 |
| 20260510031504 | 7 | 148 | 0.0 | 6.4 | 0.00 | 0.76 | 0.76 | 93 | 1010.6 |
| 20260510030004 | 7 | 140 | 0.0 | 0.0 | 0.00 | 0.76 | 0.76 | 93 | 1010.8 |
| 20260510024504 | 7 | 134 | 0.0 | 4.8 | 0.00 | 0.76 | 0.76 | 93 | 1010.6 |
| 20260510023003 | 7 | 146 | 0.0 | 4.8 | 0.00 | 0.76 | 0.76 | 93 | 1010.8 |
| 20260510021502 | 7 | 148 | 0.0 | 0.0 | 0.00 | 0.76 | 0.76 | 93 | 1010.7 |
| 20260510020002 | 7 | 148 | 0.0 | 0.0 | 0.00 | 0.76 | 0.76 | 93 | 1011.1 |
| 20260510014502 | 7 | 148 | 0.0 | 0.0 | 0.00 | 0.76 | 0.76 | 93 | 1011.0 |
| 20260510013001 | 7 | 148 | 0.0 | 0.0 | 0.00 | 0.76 | 0.76 | 93 | 1011.0 |
| 20260510011503 | 7 | 148 | 0.0 | 1.6 | 0.00 | 0.76 | 0.76 | 93 | 1011.0 |
| 20260510010100 | 7 | 149 | 0.0 | 4.8 | 0.00 | 0.76 | 0.76 | 93 | 1011.0 |
| 20260510004600 | 6 | 117 | 0.0 | 3.2 | 0.00 | 0.76 | 0.76 | 93 | 1010.8 |
| 20260510003107 | 6 | 162 | 0.0 | 0.0 | 0.00 | 0.76 | 0.76 | 93 | 1010.8 |
| 20260510001600 | 6 | 162 | 0.0 | 0.0 | 0.00 | 0.76 | 0.76 | 93 | 1010.6 |
| 20260510000127 | 6 | 163 | 0.0 | 0.0 | 0.00 | 0.76 | 0.76 | 93 | 1010.5 |
| 20260509234558 | 6 | 153 | 0.0 | 0.0 | 0.00 | 0.76 | 0.76 | 93 | 1010.3 |
| 20260509233059 | 6 | 117 | 0.0 | 4.8 | 0.00 | 0.76 | 0.76 | 93 | 1010.2 |
| 20260509231614 | 6 | 104 | 0.0 | 8.0 | 0.00 | 0.76 | 0.76 | 93 | 1010.1 |
| 20260509230105 | 6 | 130 | 0.0 | 6.4 | 0.00 | 0.76 | 0.76 | 93 | 1010.2 |
| 20260509224556 | 6 | 175 | 0.0 | 4.8 | 0.00 | 0.76 | 0.76 | 93 | 1010.2 |
| 20260509223104 | 6 | 148 | 0.0 | 4.8 | 0.00 | 0.76 | 0.76 | 93 | 1010.2 |
| 20260509221607 | 6 | 107 | 0.0 | 0.0 | 0.00 | 0.76 | 0.76 | 93 | 1010.4 |
| 20260509220054 | 6 | 128 | 0.0 | 8.0 | 0.00 | 0.76 | 0.76 | 93 | 1010.4 |
| 20260509214601 | 6 | 155 | 0.0 | 4.8 | 0.00 | 0.76 | 0.76 | 93 | 1010.4 |
| 20260509213052 | 6 | 155 | 0.0 | 0.0 | 0.00 | 0.76 | 0.76 | 93 | 1010.6 |
| 20260509211551 | 6 | 156 | 0.0 | 0.0 | 0.00 | 0.76 | 0.76 | 93 | 1010.7 |
| 20260509210051 | 6 | 172 | 0.0 | 0.0 | 0.03 | 0.76 | 0.76 | 93 | 1010.7 |
| 20260509204549 | 6 | 172 | 0.0 | 0.0 | 0.03 | 0.76 | 0.76 | 93 | 1010.9 |
| 20260509203048 | 6 | 172 | 0.0 | 0.0 | 0.05 | 0.76 | 0.76 | 93 | 1010.9 |
| 20260509201548 | 7 | 144 | 0.0 | 0.0 | 0.05 | 0.71 | 0.71 | 93 | 1011.0 |
| 20260509200054 | 7 | 140 | 0.0 | 0.0 | 0.08 | 0.71 | 0.71 | 93 | 1010.9 |
| 20260509194551 | 6 | 140 | 0.0 | 0.0 | 0.08 | 0.71 | 0.71 | 93 | 1010.9 |
| 20260509193044 | 6 | 141 | 0.0 | 0.0 | 0.08 | 0.71 | 0.71 | 93 | 1011.1 |
| 20260509191542 | 6 | 109 | 0.0 | 0.0 | 0.08 | 0.69 | 0.69 | 93 | 1011.3 |
| 20260509190040 | 6 | 143 | 0.0 | 6.4 | 0.10 | 0.66 | 0.66 | 93 | 1011.4 |
| 20260509184541 | 6 | 148 | 1.6 | 9.7 | 0.15 | 0.66 | 0.66 | 93 | 1011.5 |
| 20260509183057 | 6 | 154 | 1.6 | 16.1 | 0.15 | 0.64 | 0.64 | 93 | 1011.4 |
| 20260509181538 | 6 | 137 | 3.2 | 12.9 | 0.18 | 0.61 | 0.61 | 93 | 1011.4 |
| 20260509180037 | 6 | 146 | 0.0 | 11.3 | 0.15 | 0.56 | 0.56 | 93 | 1011.4 |
| 20260509174546 | 6 | 136 | 3.2 | 11.3 | 0.13 | 0.51 | 0.51 | 93 | 1011.7 |
| 20260509173036 | 6 | 175 | 3.2 | 16.1 | 0.15 | 0.48 | 0.48 | 93 | 1011.8 |
| 20260509171540 | 6 | 163 | 0.0 | 8.0 | 0.15 | 0.43 | 0.43 | 93 | 1012.0 |
| 20260509170033 | 6 | 200 | 0.0 | 0.0 | 0.15 | 0.41 | 0.41 | 93 | 1012.1 |
| 20260509164530 | 6 | 200 | 0.0 | 0.0 | 0.18 | 0.38 | 0.38 | 93 | 1012.2 |
| 20260509163042 | 6 | 200 | 0.0 | 6.4 | 0.15 | 0.33 | 0.33 | 93 | 1012.5 |
| 20260509161539 | 6 | 186 | 0.0 | 11.3 | 0.13 | 0.28 | 0.28 | 92 | 1012.6 |
| 20260509160027 | 6 | 178 | 1.6 | 6.4 | 0.15 | 0.25 | 0.25 | 92 | 1012.9 |
| 20260509154526 | 6 | 98 | 0.0 | 6.4 | 0.13 | 0.20 | 0.20 | 92 | 1013.1 |
| 20260509153042 | 6 | 140 | 0.0 | 4.8 | 0.13 | 0.18 | 0.18 | 92 | 1013.2 |
| 20260509151525 | 6 | 162 | 0.0 | 0.0 | 0.13 | 0.15 | 0.15 | 91 | 1013.3 |